Radiation Dose at Monitoring Post of Fukushima Daini Nuclear Power Station
Date,Time,MP-1(microSv/h),MP-2(microSv/h),MP-3(microSv/h),MP-4(microSv/h),MP-5(microSv/h),MP-6(microSv/h),MP-7(microSv/h),Wind Direction,Wind Velocity(m/s),Rain
2020/01/04,00:00,0.184,0.164,0.277,0.259,0.254,0.141,0.086,west,7.4,No
2020/01/04,00:10,0.184,0.164,0.278,0.258,0.253,0.141,0.087,west,7.0,No
2020/01/04,00:20,0.183,0.164,0.278,0.258,0.254,0.141,0.087,west,5.1,No
2020/01/04,00:30,0.183,0.164,0.279,0.259,0.253,0.140,0.087,west,2.7,No
2020/01/04,00:40,0.182,0.164,0.279,0.259,0.254,0.141,0.087,west,1.8,No
2020/01/04,00:50,0.183,0.164,0.279,0.258,0.254,0.140,0.086,west-northwest,1.4,No
2020/01/04,01:00,0.183,0.165,0.278,0.258,0.254,0.141,0.086,northwest,1.2,No
2020/01/04,01:10,0.183,0.163,0.277,0.258,0.254,0.141,0.086,west-northwest,2.3,No
2020/01/04,01:20,0.183,0.164,0.278,0.259,0.253,0.140,0.086,northwest,3.6,No
2020/01/04,01:30,0.183,0.164,0.278,0.258,0.253,0.141,0.086,west-northwest,6.4,No
2020/01/04,01:40,0.183,0.164,0.278,0.258,0.252,0.141,0.087,northwest,5.7,No
2020/01/04,01:50,0.183,0.165,0.278,0.258,0.255,0.142,0.087,northwest,4.5,No
2020/01/04,02:00,0.183,0.165,0.278,0.258,0.254,0.141,0.086,northwest,4.2,No
2020/01/04,02:10,0.183,0.164,0.278,0.259,0.254,0.140,0.088,north-northwest,2.9,No
2020/01/04,02:20,0.182,0.164,0.278,0.259,0.254,0.141,0.086,north,1.9,No
2020/01/04,02:30,0.184,0.164,0.278,0.258,0.254,0.142,0.087,north,2.1,No
2020/01/04,02:40,0.183,0.163,0.278,0.258,0.255,0.141,0.087,north,2.2,No
2020/01/04,02:50,0.182,0.164,0.279,0.257,0.254,0.142,0.087,north,2.9,No
2020/01/04,03:00,0.183,0.164,0.277,0.258,0.253,0.141,0.086,north-northwest,1.2,No
2020/01/04,03:10,0.183,0.164,0.279,0.258,0.253,0.141,0.087,north-northwest,1.8,No
2020/01/04,03:20,0.183,0.164,0.277,0.259,0.253,0.141,0.087,north,1.5,No
2020/01/04,03:30,0.184,0.164,0.278,0.258,0.254,0.141,0.087,north-northwest,2.6,No
2020/01/04,03:40,0.183,0.164,0.278,0.258,0.253,0.141,0.087,north,3.5,No
2020/01/04,03:50,0.182,0.164,0.278,0.259,0.252,0.141,0.087,north-northwest,3.7,No
2020/01/04,04:00,0.183,0.164,0.278,0.259,0.254,0.141,0.087,north,2.9,No
2020/01/04,04:10,0.184,0.164,0.279,0.259,0.253,0.141,0.087,north,2.8,No
2020/01/04,04:20,0.183,0.164,0.279,0.259,0.255,0.142,0.087,north-northwest,2.2,No
2020/01/04,04:30,0.183,0.164,0.279,0.259,0.255,0.141,0.087,north-northwest,1.5,No
2020/01/04,04:40,0.183,0.165,0.279,0.258,0.254,0.141,0.086,-,CALM,No
2020/01/04,04:50,0.183,0.164,0.279,0.259,0.254,0.141,0.087,-,CALM,No
2020/01/04,05:00,0.183,0.165,0.277,0.258,0.253,0.141,0.087,east-southeast,1.0,No
2020/01/04,05:10,0.183,0.164,0.277,0.259,0.255,0.141,0.086,east-southeast,1.1,No
2020/01/04,05:20,0.183,0.164,0.278,0.259,0.253,0.141,0.087,east-northeast,1.0,No
2020/01/04,05:30,0.183,0.164,0.279,0.259,0.254,0.141,0.087,east-northeast,0.7,No
2020/01/04,05:40,0.183,0.165,0.278,0.258,0.252,0.141,0.088,-,CALM,No
2020/01/04,05:50,0.183,0.165,0.279,0.259,0.253,0.142,0.087,southeast,1.2,No
2020/01/04,06:00,0.183,0.163,0.279,0.259,0.254,0.141,0.086,east-southeast,1.5,No
2020/01/04,06:10,0.184,0.164,0.278,0.257,0.254,0.141,0.087,east-southeast,1.4,No
2020/01/04,06:20,0.183,0.164,0.278,0.259,0.253,0.142,0.088,southeast,1.5,No
2020/01/04,06:30,0.184,0.164,0.277,0.257,0.252,0.141,0.086,-,CALM,No
2020/01/04,06:40,0.183,0.164,0.278,0.259,0.253,0.141,0.086,east,0.8,No
2020/01/04,06:50,0.183,0.164,0.278,0.259,0.253,0.141,0.087,east-southeast,1.4,No
2020/01/04,07:00,0.183,0.165,0.279,0.258,0.253,0.140,0.087,east-southeast,2.1,No
2020/01/04,07:10,0.182,0.165,0.279,0.258,0.254,0.140,0.087,east-southeast,1.7,No
2020/01/04,07:20,0.183,0.163,0.278,0.259,0.252,0.141,0.087,south,1.1,No
2020/01/04,07:30,0.184,0.164,0.279,0.259,0.253,0.141,0.087,south-southeast,1.0,No
2020/01/04,07:40,0.184,0.165,0.279,0.259,0.253,0.141,0.087,south,0.9,No
2020/01/04,07:50,0.183,0.164,0.277,0.258,0.254,0.140,0.087,-,CALM,No
2020/01/04,08:00,0.183,0.163,0.277,0.259,0.253,0.141,0.087,west,3.2,No
2020/01/04,08:10,0.182,0.164,0.277,0.258,0.253,0.140,0.086,west,5.0,No
2020/01/04,08:20,0.183,0.164,0.278,0.258,0.253,0.142,0.086,northwest,2.7,No
2020/01/04,08:30,0.182,0.165,0.279,0.258,0.253,0.140,0.087,northwest,1.4,No
2020/01/04,08:40,0.182,0.163,0.278,0.256,0.253,0.140,0.086,north-northwest,2.6,No
2020/01/04,08:50,0.181,0.164,0.278,0.257,0.253,0.140,0.085,north,2.5,No
2020/01/04,09:00,0.183,0.163,0.279,0.257,0.252,0.140,0.085,north,1.7,No
2020/01/04,09:10,0.182,0.163,0.277,0.257,0.253,0.141,0.085,northwest,2.1,No
2020/01/04,09:20,0.182,0.163,0.278,0.257,0.253,0.140,0.086,west,2.3,No
2020/01/04,09:30,0.181,0.164,0.277,0.256,0.252,0.140,0.087,west,1.7,No
2020/01/04,09:40,0.183,0.163,0.278,0.257,0.251,0.140,0.086,west-northwest,0.6,No
2020/01/04,09:50,0.183,0.164,0.278,0.257,0.253,0.140,0.086,north-northwest,2.4,No
2020/01/04,10:00,0.182,0.163,0.279,0.257,0.253,0.141,0.087,north,2.2,No
2020/01/04,10:10,0.183,0.163,0.278,0.258,0.254,0.141,0.087,north-northeast,2.4,No
2020/01/04,10:20,0.182,0.162,0.278,0.259,0.253,0.141,0.086,northwest,2.3,No
2020/01/04,10:30,0.181,0.163,0.277,0.258,0.253,0.141,0.086,north-northwest,1.4,No
2020/01/04,10:40,0.181,0.162,0.277,0.258,0.254,0.141,0.086,northeast,1.7,No
2020/01/04,10:50,0.182,0.164,0.277,0.258,0.252,0.141,0.086,northeast,3.0,No
2020/01/04,11:00,0.182,0.164,0.278,0.258,0.254,0.141,0.086,east-northeast,2.9,No
2020/01/04,11:10,0.183,0.164,0.277,0.258,0.252,0.141,0.086,east,2.3,No
2020/01/04,11:20,0.182,0.163,0.278,0.257,0.254,0.141,0.086,east-northeast,1.7,No
2020/01/04,11:30,0.182,0.163,0.278,0.258,0.252,0.141,0.086,east,2.7,No
2020/01/04,11:40,0.181,0.163,0.277,0.258,0.253,0.141,0.086,east,2.3,No
2020/01/04,11:50,0.181,0.163,0.277,0.259,0.254,0.140,0.086,east-southeast,2.4,No
2020/01/04,12:00,0.183,0.162,0.277,0.259,0.252,0.141,0.086,northeast,2.2,No
2020/01/04,12:10,0.182,0.164,0.276,0.257,0.253,0.141,0.086,east-southeast,2.4,No
2020/01/04,12:20,0.182,0.163,0.278,0.258,0.252,0.141,0.087,southwest,0.8,No
2020/01/04,12:30,0.181,0.163,0.276,0.257,0.254,0.141,0.086,north,0.9,No
2020/01/04,12:40,0.182,0.164,0.278,0.259,0.252,0.141,0.087,-,CALM,No
2020/01/04,12:50,0.182,0.163,0.277,0.258,0.253,0.141,0.086,northeast,4.2,No
2020/01/04,13:00,0.182,0.165,0.276,0.259,0.252,0.140,0.086,northeast,4.4,No
2020/01/04,13:10,0.183,0.164,0.278,0.258,0.255,0.140,0.086,northeast,3.2,No
2020/01/04,13:20,0.183,0.165,0.277,0.259,0.254,0.141,0.086,northeast,2.6,No
2020/01/04,13:30,0.184,0.165,0.277,0.258,0.254,0.141,0.087,east-northeast,1.0,No
2020/01/04,13:40,0.182,0.164,0.279,0.258,0.255,0.142,0.087,northeast,3.2,No
2020/01/04,13:50,0.183,0.164,0.277,0.258,0.254,0.140,0.086,northeast,1.6,No
2020/01/04,14:00,0.184,0.164,0.278,0.258,0.253,0.140,0.086,north-northeast,0.6,No
2020/01/04,14:10,0.184,0.164,0.278,0.259,0.254,0.140,0.087,north-northeast,1.1,No
2020/01/04,14:20,0.182,0.163,0.278,0.258,0.252,0.141,0.086,north-northwest,2.6,No
2020/01/04,14:30,0.183,0.164,0.277,0.261,0.253,0.141,0.086,north-northwest,1.4,No
2020/01/04,14:40,0.182,0.163,0.279,0.258,0.252,0.140,0.087,northwest,1.2,No
2020/01/04,14:50,0.183,0.163,0.279,0.259,0.254,0.140,0.086,west,5.0,No
2020/01/04,15:00,0.182,0.163,0.278,0.258,0.253,0.140,0.086,west-northwest,7.1,No
2020/01/04,15:10,0.183,0.163,0.278,0.257,0.254,0.140,0.086,northwest,6.1,No
2020/01/04,15:20,0.183,0.164,0.278,0.259,0.255,0.141,0.087,west,5.0,No
2020/01/04,15:30,0.183,0.165,0.278,0.259,0.253,0.140,0.086,northwest,2.2,No
2020/01/04,15:40,0.182,0.164,0.278,0.259,0.255,0.140,0.086,west-northwest,4.4,No
2020/01/04,15:50,0.183,0.164,0.278,0.260,0.255,0.140,0.087,west,5.9,No
2020/01/04,16:00,0.184,0.164,0.278,0.259,0.255,0.141,0.087,west,6.8,No
2020/01/04,16:10,0.183,0.164,0.279,0.259,0.255,0.142,0.087,west,6.6,No
2020/01/04,16:20,0.183,0.164,0.280,0.260,0.254,0.141,0.086,west-northwest,6.8,No
2020/01/04,16:30,0.184,0.164,0.278,0.259,0.256,0.142,0.087,west-northwest,5.6,No
2020/01/04,16:40,0.183,0.164,0.279,0.260,0.254,0.141,0.087,west-northwest,3.2,No
2020/01/04,16:50,0.183,0.165,0.278,0.260,0.253,0.141,0.086,west-northwest,3.9,No
2020/01/04,17:00,0.183,0.165,0.279,0.259,0.254,0.140,0.086,northwest,4.2,No
2020/01/04,17:10,0.183,0.165,0.278,0.258,0.254,0.141,0.085,west-northwest,4.8,No
2020/01/04,17:20,0.183,0.164,0.278,0.259,0.254,0.141,0.087,west-northwest,5.5,No
2020/01/04,17:30,0.183,0.165,0.278,0.260,0.254,0.141,0.086,west-northwest,4.4,No
2020/01/04,17:40,0.184,0.165,0.278,0.260,0.253,0.140,0.087,west-northwest,4.0,No
2020/01/04,17:50,0.183,0.163,0.279,0.259,0.253,0.141,0.086,west,4.0,No
2020/01/04,18:00,0.183,0.165,0.278,0.259,0.254,0.140,0.087,west,4.0,No
2020/01/04,18:10,0.184,0.164,0.278,0.259,0.255,0.141,0.087,west,4.6,No
2020/01/04,18:20,0.183,0.163,0.280,0.259,0.254,0.141,0.086,west-northwest,6.3,No
2020/01/04,18:30,0.183,0.165,0.278,0.259,0.254,0.141,0.087,west-northwest,7.5,No
2020/01/04,18:40,0.183,0.163,0.278,0.260,0.253,0.141,0.087,west-northwest,7.8,No
2020/01/04,18:50,0.182,0.164,0.279,0.259,0.253,0.141,0.086,west-northwest,7.5,No
2020/01/04,19:00,0.182,0.164,0.279,0.258,0.254,0.141,0.086,west-northwest,7.1,No
2020/01/04,19:10,0.182,0.164,0.278,0.260,0.255,0.141,0.086,west-northwest,6.4,No
2020/01/04,19:20,0.183,0.164,0.278,0.258,0.253,0.141,0.086,west-northwest,6.2,No
2020/01/04,19:30,0.183,0.164,0.277,0.261,0.253,0.141,0.086,west-northwest,6.2,No
2020/01/04,19:40,0.183,0.164,0.279,0.260,0.253,0.141,0.087,west,5.6,No
2020/01/04,19:50,0.183,0.164,0.277,0.259,0.254,0.141,0.087,west-northwest,5.0,No
2020/01/04,20:00,0.182,0.163,0.280,0.260,0.253,0.140,0.086,west-northwest,5.3,No
2020/01/04,20:10,0.183,0.164,0.278,0.259,0.255,0.141,0.086,northwest,6.3,No
2020/01/04,20:20,0.182,0.164,0.279,0.259,0.254,0.140,0.087,northwest,6.1,No
2020/01/04,20:30,0.183,0.165,0.278,0.259,0.254,0.142,0.087,northwest,6.3,No
2020/01/04,20:40,0.183,0.164,0.279,0.259,0.255,0.141,0.087,northwest,7.4,No
2020/01/04,20:50,0.184,0.164,0.279,0.257,0.254,0.141,0.087,northwest,6.6,No
2020/01/04,21:00,0.183,0.165,0.279,0.260,0.252,0.141,0.086,northwest,5.9,No
2020/01/04,21:10,0.183,0.164,0.280,0.259,0.254,0.140,0.087,northwest,5.2,No
2020/01/04,21:20,0.184,0.164,0.281,0.260,0.254,0.141,0.087,west-northwest,4.4,No
2020/01/04,21:30,0.184,0.164,0.279,0.259,0.254,0.141,0.086,northwest,3.9,No
2020/01/04,21:40,0.184,0.165,0.279,0.259,0.253,0.141,0.087,northwest,3.8,No
2020/01/04,21:50,0.183,0.164,0.279,0.259,0.254,0.141,0.087,west-northwest,3.5,No
2020/01/04,22:00,0.184,0.165,0.279,0.259,0.254,0.141,0.087,west-northwest,2.2,No
2020/01/04,22:10,0.183,0.165,0.278,0.259,0.253,0.141,0.086,west-northwest,1.5,No
2020/01/04,22:20,0.184,0.165,0.279,0.259,0.254,0.141,0.086,northwest,2.5,No
2020/01/04,22:30,0.184,0.165,0.279,0.260,0.254,0.141,0.087,northwest,4.0,No
2020/01/04,22:40,0.183,0.165,0.278,0.259,0.254,0.141,0.087,northwest,4.5,No
2020/01/04,22:50,0.183,0.163,0.278,0.259,0.253,0.141,0.087,northwest,3.8,No
2020/01/04,23:00,0.183,0.164,0.278,0.258,0.254,0.141,0.086,west-northwest,3.1,No
2020/01/04,23:10,0.183,0.165,0.279,0.259,0.254,0.142,0.087,west-northwest,2.0,No
2020/01/04,23:20,0.183,0.164,0.279,0.260,0.254,0.142,0.087,northwest,2.9,No
2020/01/04,23:30,0.183,0.164,0.279,0.259,0.253,0.141,0.087,north-northwest,4.3,No
2020/01/04,23:40,0.184,0.164,0.278,0.259,0.255,0.142,0.087,north-northwest,5.0,No
2020/01/04,23:50,0.183,0.165,0.279,0.260,0.254,0.141,0.087,north-northwest,5.3,No
